Tracking 20710 objects as of 30-May-2020
HD Live streaming from Space Station
objects crossing your sky now

TITAN 3C TRANSTAGE R/B

Track TITAN 3C TRANSTAGE R/B now!


NORAD ID: 11560
Int'l Code: 1979-086C
Perigee: 30,175.0 km
Apogee: 41,749.3 km
Inclination: 6.1 °
Period: 1,444.7 minutes
Semi major axis: 42333 km
RCS: Unknown
Launch date: October 1, 1979
Source: United States (US)
Launch site: AIR FORCE EASTERN TEST RANGE (AFETR)

Note: This is a ROCKET BODY
aabbcc
Your satellite tracking list
Your tracking list is empty




NASA's NSSDC Master Catalog

Two Line Element Set (TLE):
1 11560U 79086C   20151.17037400  .00000030  00000-0  00000+0 0  9996
2 11560   6.1163 353.3859 1367047 105.7580 269.6497  0.99673990  4214
Source of the keplerian elements: McCants